owner,sensor,date,latitude,longitude,vertical_datum,wind_speed,wind_to_direction,wind_speed_of_gust,qcFlag 
TABS,ioos:station:wmo:42044:1,2005-06-01T00:00:00Z,26.1914,-97.0507,0.0,6.973528519,98.3280346,8.59,'11111222,11111222,11111222' 
TABS,ioos:station:wmo:42044:1,2005-06-01T00:30:00Z,26.1914,-97.0507,0.0,6.389507023,97.82614778,8.04,'11111222,11111222,11111222' 
TABS,ioos:station:wmo:42044:1,2005-06-01T01:00:00Z,26.1914,-97.0507,0.0,6.51020737,99.54953252,8.42,'11111222,11111222,11111222' 
TABS,ioos:station:wmo:42044:1,2005-06-01T01:30:00Z,26.1914,-97.0507,0.0,6.401078034,103.2767869,8.24,'11111222,11111222,11111222' 
TABS,ioos:station:wmo:42044:1,2005-06-01T02:00:00Z,26.1914,-97.0507,0.0,6.507918254,115.5810456,8.16,'11111222,11111222,11111222' 
TABS,ioos:station:wmo:42044:1,2005-06-01T02:30:00Z,26.1914,-97.0507,0.0,6.123601881,110.654977,7.66,'11111222,11111222,11111222' 
TABS,ioos:station:wmo:42044:1,2005-06-01T03:00:00Z,26.1914,-97.0507,0.0,5.742003135,120.4507169,7.15,'11111222,11111222,11111222' 
TABS,ioos:station:wmo:42044:1,2005-06-01T03:30:00Z,26.1914,-97.0507,0.0,5.86849214,126.1282034,7.23,'11111222,11111222,11111222' 
TABS,ioos:station:wmo:42044:1,2005-06-01T04:00:00Z,26.1914,-97.0507,0.0,5.813260703,134.0245718,7.26,'11111222,11111222,11111222' 
TABS,ioos:station:wmo:42044:1,2005-06-01T04:30:00Z,26.1914,-97.0507,0.0,5.791044811,137.7998288,7.44,'11111222,11111222,11111222' 
TABS,ioos:station:wmo:42044:1,2005-06-01T05:00:00Z,26.1914,-97.0507,0.0,6.026209422,136.3450369,7.14,'11111222,11111222,11111222' 
TABS,ioos:station:wmo:42044:1,2005-06-01T05:30:00Z,26.1914,-97.0507,0.0,5.423734876,134.4774234,6.85,'11111222,11111222,11111222' 
TABS,ioos:station:wmo:42044:1,2005-06-01T06:00:00Z,26.1914,-97.0507,0.0,6.257938958,141.097413,7.35,'11111222,11111222,11111222' 
TABS,ioos:station:wmo:42044:1,2005-06-01T06:30:00Z,26.1914,-97.0507,0.0,5.184100693,147.0459199,6.99,'11111222,11111222,11111222' 
TABS,ioos:station:wmo:42044:1,2005-06-01T07:00:00Z,26.1914,-97.0507,0.0,5.015994418,151.5447936,6.47,'11111222,11111222,11111222' 
TABS,ioos:station:wmo:42044:1,2005-06-01T07:30:00Z,26.1914,-97.0507,0.0,5.093564567,149.3066048,6.13,'11111222,11111222,11111222' 
TABS,ioos:station:wmo:42044:1,2005-06-01T08:00:00Z,26.1914,-97.0507,0.0,5.236993412,153.8266459,6.57,'11111222,11111222,11111222' 
TABS,ioos:station:wmo:42044:1,2005-06-01T08:30:00Z,26.1914,-97.0507,0.0,6.294028916,176.1740339,7.49,'11111222,11111222,11111222' 
TABS,ioos:station:wmo:42044:1,2005-06-01T09:00:00Z,26.1914,-97.0507,0.0,5.274713262,161.7714033,6.73,'11111222,11111222,11111222' 
TABS,ioos:station:wmo:42044:1,2005-06-01T09:30:00Z,26.1914,-97.0507,0.0,6.689521657,164.3019157,8.04,'11111222,11111222,11111222' 
TABS,ioos:station:wmo:42044:1,2005-06-01T10:00:00Z,26.1914,-97.0507,0.0,7.214457707,169.7806283,8.85,'11111222,11111222,11111222' 
TABS,ioos:station:wmo:42044:1,2005-06-01T10:30:00Z,26.1914,-97.0507,0.0,6.280127387,170.8378848,7.98,'11111222,11111222,11111222' 
TABS,ioos:station:wmo:42044:1,2005-06-01T11:00:00Z,26.1914,-97.0507,0.0,6.429004589,174.5556664,8.43,'11111222,11111222,11111222' 
TABS,ioos:station:wmo:42044:1,2005-06-01T11:30:00Z,26.1914,-97.0507,0.0,3.253828514,208.8495094,4.32,'11111222,11111222,11111222' 
TABS,ioos:station:wmo:42044:1,2005-06-01T12:00:00Z,26.1914,-97.0507,0.0,3.948024823,127.0734075,5.45,'11111222,11111222,11111222' 
TABS,ioos:station:wmo:42044:1,2005-06-01T12:30:00Z,26.1914,-97.0507,0.0,1.847078775,300.5912943,3.26,'11111222,11111222,11111222' 
TABS,ioos:station:wmo:42044:1,2005-06-01T13:00:00Z,26.1914,-97.0507,0.0,1.365613415,255.1496964,2.37,'11111222,11111222,11111222' 
TABS,ioos:station:wmo:42044:1,2005-06-01T13:30:00Z,26.1914,-97.0507,0.0,2.032732152,203.7909287,3.97,'11111222,11111222,11111222' 
TABS,ioos:station:wmo:42044:1,2005-06-01T14:00:00Z,26.1914,-97.0507,0.0,5.191464148,101.8947352,16.09,'11111222,11111222,11111222' 
TABS,ioos:station:wmo:42044:1,2005-06-01T14:30:00Z,26.1914,-97.0507,0.0,16.8229605,12.56550905,21.59,'11111222,11111222,11111222' 
TABS,ioos:station:wmo:42044:1,2005-06-01T15:00:00Z,26.1914,-97.0507,0.0,10.96700506,15.65809822,13.53,'11111222,11111222,11111222' 
TABS,ioos:station:wmo:42044:1,2005-06-01T15:30:00Z,26.1914,-97.0507,0.0,9.698670012,37.54308032,13.12,'11111222,11111222,11111222' 
TABS,ioos:station:wmo:42044:1,2005-06-01T16:00:00Z,26.1914,-97.0507,0.0,8.472573399,61.13552414,10.68,'11111222,11111222,11111222' 
TABS,ioos:station:wmo:42044:1,2005-06-01T16:30:00Z,26.1914,-97.0507,0.0,8.089802223,66.69874588,10.35,'11111222,11111222,11111222' 
TABS,ioos:station:wmo:42044:1,2005-06-01T17:00:00Z,26.1914,-97.0507,0.0,6.999342826,85.73900606,8.81,'11111222,11111222,11111222' 
TABS,ioos:station:wmo:42044:1,2005-06-01T17:30:00Z,26.1914,-97.0507,0.0,7.42676915,94.8665595,9.23,'11111222,11111222,11111222' 
TABS,ioos:station:wmo:42044:1,2005-06-01T18:00:00Z,26.1914,-97.0507,0.0,6.581101731,99.00470911,8.66,'11111222,11111222,11111222' 
TABS,ioos:station:wmo:42044:1,2005-06-01T18:30:00Z,26.1914,-97.0507,0.0,6.19021809,138.2745298,8.41,'11111222,11111222,11111222' 
TABS,ioos:station:wmo:42044:1,2005-06-01T19:00:00Z,26.1914,-97.0507,0.0,5.660830328,130.4149905,7.22,'11111222,11111222,11111222' 
TABS,ioos:station:wmo:42044:1,2005-06-01T19:30:00Z,26.1914,-97.0507,0.0,5.682481852,126.1240799,7.32,'11111222,11111222,11111222' 
TABS,ioos:station:wmo:42044:1,2005-06-01T20:00:00Z,26.1914,-97.0507,0.0,6.045337046,120.8503266,7.35,'11111222,11111222,11111222' 
TABS,ioos:station:wmo:42044:1,2005-06-01T20:30:00Z,26.1914,-97.0507,0.0,4.904334817,113.4290589,6.19,'11111222,11111222,11111222' 
TABS,ioos:station:wmo:42044:1,2005-06-01T21:00:00Z,26.1914,-97.0507,0.0,4.971448481,114.6064666,6.74,'11111222,11111222,11111222' 
TABS,ioos:station:wmo:42044:1,2005-06-01T21:30:00Z,26.1914,-97.0507,0.0,4.763664556,122.2224675,6.17,'11111222,11111222,11111222' 
TABS,ioos:station:wmo:42044:1,2005-06-01T22:00:00Z,26.1914,-97.0507,0.0,4.978242662,113.9394822,6.17,'11111222,11111222,11111222' 
TABS,ioos:station:wmo:42044:1,2005-06-01T22:30:00Z,26.1914,-97.0507,0.0,4.51323609,113.7823957,5.71,'11111222,11111222,11111222' 
TABS,ioos:station:wmo:42044:1,2005-06-01T23:00:00Z,26.1914,-97.0507,0.0,3.754210969,118.4768318,5.04,'11111222,11111222,11111222' 
TABS,ioos:station:wmo:42044:1,2005-06-01T23:30:00Z,26.1914,-97.0507,0.0,2.838097955,119.0941738,3.68,'11111222,11111222,11111222' 
TABS,ioos:station:wmo:42044:1,2005-06-02T00:00:00Z,26.1914,-97.0507,0.0,3.671648131,100.5146053,4.58,'11111222,11111222,11111222' 
TABS,ioos:station:wmo:42044:1,2005-06-02T00:30:00Z,26.1914,-97.0507,0.0,4.205769846,104.5983356,5.59,'11111222,11111222,11111222' 
TABS,ioos:station:wmo:42044:1,2005-06-02T01:00:00Z,26.1914,-97.0507,0.0,5.132640646,104.9030403,6.5,'11111222,11111222,11111222' 
TABS,ioos:station:wmo:42044:1,2005-06-02T01:30:00Z,26.1914,-97.0507,0.0,4.796717628,105.6012222,6.4,'11111222,11111222,11111222' 
TABS,ioos:station:wmo:42044:1,2005-06-02T02:00:00Z,26.1914,-97.0507,0.0,3.879304061,100.8468738,5.02,'11111222,11111222,11111222' 
TABS,ioos:station:wmo:42044:1,2005-06-02T02:30:00Z,26.1914,-97.0507,0.0,4.283654981,98.18725133,5.55,'11111222,11111222,11111222' 
TABS,ioos:station:wmo:42044:1,2005-06-02T03:00:00Z,26.1914,-97.0507,0.0,4.682093549,91.71388223,6.36,'11111222,11111222,11111222' 
TABS,ioos:station:wmo:42044:1,2005-06-02T03:30:00Z,26.1914,-97.0507,0.0,5.064484179,96.69041427,6.55,'11111222,11111222,11111222' 
TABS,ioos:station:wmo:42044:1,2005-06-02T04:00:00Z,26.1914,-97.0507,0.0,5.740601014,109.5400644,7.29,'11111222,11111222,11111222' 
TABS,ioos:station:wmo:42044:1,2005-06-02T04:30:00Z,26.1914,-97.0507,0.0,5.717779289,112.3041967,7.55,'11111222,11111222,11111222' 
TABS,ioos:station:wmo:42044:1,2005-06-02T05:00:00Z,26.1914,-97.0507,0.0,4.937580379,117.2400558,6.33,'11111222,11111222,11111222' 
TABS,ioos:station:wmo:42044:1,2005-06-02T05:30:00Z,26.1914,-97.0507,0.0,5.347532141,128.2418077,6.73,'11111222,11111222,11111222' 
TABS,ioos:station:wmo:42044:1,2005-06-02T06:00:00Z,26.1914,-97.0507,0.0,5.319323265,128.8956451,6.74,'11111222,11111222,11111222' 
TABS,ioos:station:wmo:42044:1,2005-06-02T06:30:00Z,26.1914,-97.0507,0.0,5.107102897,145.1277527,6.44,'11111222,11111222,11111222' 
TABS,ioos:station:wmo:42044:1,2005-06-02T07:00:00Z,26.1914,-97.0507,0.0,5.871507473,146.3914153,6.94,'11111222,11111222,11111222' 
TABS,ioos:station:wmo:42044:1,2005-06-02T07:30:00Z,26.1914,-97.0507,0.0,5.517553806,145.1869216,7.01,'11111222,11111222,11111222' 
TABS,ioos:station:wmo:42044:1,2005-06-02T08:00:00Z,26.1914,-97.0507,0.0,5.094752202,140.6555068,6.39,'11111222,11111222,11111222' 
TABS,ioos:station:wmo:42044:1,2005-06-02T08:30:00Z,26.1914,-97.0507,0.0,5.12946391,147.5804957,6.46,'11111222,11111222,11111222' 
TABS,ioos:station:wmo:42044:1,2005-06-02T09:00:00Z,26.1914,-97.0507,0.0,4.923921202,147.4398486,6.12,'11111222,11111222,11111222' 
TABS,ioos:station:wmo:42044:1,2005-06-02T09:30:00Z,26.1914,-97.0507,0.0,5.204584518,143.9891088,6.7,'11111222,11111222,11111222' 
TABS,ioos:station:wmo:42044:1,2005-06-02T10:00:00Z,26.1914,-97.0507,0.0,5.422195127,146.2809145,6.8,'11111222,11111222,11111222' 
TABS,ioos:station:wmo:42044:1,2005-06-02T10:30:00Z,26.1914,-97.0507,0.0,5.555546778,146.8250963,7.11,'11111222,11111222,11111222' 
TABS,ioos:station:wmo:42044:1,2005-06-02T11:00:00Z,26.1914,-97.0507,0.0,6.289554833,154.7797514,7.72,'11111222,11111222,11111222' 
TABS,ioos:station:wmo:42044:1,2005-06-02T11:30:00Z,26.1914,-97.0507,0.0,6.188311563,148.2108148,7.81,'11111222,11111222,11111222' 
TABS,ioos:station:wmo:42044:1,2005-06-02T12:00:00Z,26.1914,-97.0507,0.0,6.220755581,153.558792,7.88,'11111222,11111222,11111222' 
TABS,ioos:station:wmo:42044:1,2005-06-02T12:30:00Z,26.1914,-97.0507,0.0,5.740818757,157.1424037,7.19,'11111222,11111222,11111222' 
TABS,ioos:station:wmo:42044:1,2005-06-02T13:00:00Z,26.1914,-97.0507,0.0,5.258298204,166.3604117,6.25,'11111222,11111222,11111222' 
TABS,ioos:station:wmo:42044:1,2005-06-02T13:30:00Z,26.1914,-97.0507,0.0,5.58571392,165.5908246,7.01,'11111222,11111222,11111222' 
TABS,ioos:station:wmo:42044:1,2005-06-02T14:00:00Z,26.1914,-97.0507,0.0,5.312786463,168.7114545,6.44,'11111222,11111222,11111222' 
TABS,ioos:station:wmo:42044:1,2005-06-02T14:30:00Z,26.1914,-97.0507,0.0,4.797666099,172.8159599,5.98,'11111222,11111222,11111222' 
TABS,ioos:station:wmo:42044:1,2005-06-02T15:00:00Z,26.1914,-97.0507,0.0,4.443028247,175.6114059,5.27,'11111222,11111222,11111222' 
TABS,ioos:station:wmo:42044:1,2005-06-02T15:30:00Z,26.1914,-97.0507,0.0,4.138175927,166.8707133,5.0,'11111222,11111222,11111222' 
TABS,ioos:station:wmo:42044:1,2005-06-02T16:00:00Z,26.1914,-97.0507,0.0,4.499688878,154.4602826,5.69,'11111222,11111222,11111222' 
TABS,ioos:station:wmo:42044:1,2005-06-02T16:30:00Z,26.1914,-97.0507,0.0,4.788736785,142.1253154,5.88,'11111222,11111222,11111222' 
TABS,ioos:station:wmo:42044:1,2005-06-02T17:00:00Z,26.1914,-97.0507,0.0,4.894486694,141.3039287,6.15,'11111222,11111222,11111222' 
TABS,ioos:station:wmo:42044:1,2005-06-02T17:30:00Z,26.1914,-97.0507,0.0,5.426195721,138.4369192,6.78,'11111222,11111222,11111222' 
TABS,ioos:station:wmo:42044:1,2005-06-02T18:00:00Z,26.1914,-97.0507,0.0,5.107269329,136.5870469,6.36,'11111222,11111222,11111222' 
TABS,ioos:station:wmo:42044:1,2005-06-02T18:30:00Z,26.1914,-97.0507,0.0,5.438979684,133.7339082,6.65,'11111222,11111222,11111222' 
TABS,ioos:station:wmo:42044:1,2005-06-02T19:00:00Z,26.1914,-97.0507,0.0,5.310837975,131.9474403,6.55,'11111222,11111222,11111222' 
TABS,ioos:station:wmo:42044:1,2005-06-02T19:30:00Z,26.1914,-97.0507,0.0,5.450229353,121.0362204,6.89,'11111222,11111222,11111222' 
TABS,ioos:station:wmo:42044:1,2005-06-02T20:00:00Z,26.1914,-97.0507,0.0,5.809793456,119.830858,7.31,'11111222,11111222,11111222' 
TABS,ioos:station:wmo:42044:1,2005-06-02T20:30:00Z,26.1914,-97.0507,0.0,5.948108943,116.1346238,7.84,'11111222,11111222,11111222' 
TABS,ioos:station:wmo:42044:1,2005-06-02T21:00:00Z,26.1914,-97.0507,0.0,6.039412223,118.05052,7.15,'11111222,11111222,11111222' 
TABS,ioos:station:wmo:42044:1,2005-06-02T21:30:00Z,26.1914,-97.0507,0.0,6.225255015,114.383382,8.09,'11111222,11111222,11111222' 
TABS,ioos:station:wmo:42044:1,2005-06-02T22:00:00Z,26.1914,-97.0507,0.0,6.455176218,111.1589611,8.32,'11111222,11111222,11111222' 
TABS,ioos:station:wmo:42044:1,2005-06-02T22:30:00Z,26.1914,-97.0507,0.0,6.024159692,108.5857086,7.57,'11111222,11111222,11111222' 
TABS,ioos:station:wmo:42044:1,2005-06-02T23:00:00Z,26.1914,-97.0507,0.0,6.709612507,106.8959273,8.38,'11111222,11111222,11111222' 
TABS,ioos:station:wmo:42044:1,2005-06-02T23:30:00Z,26.1914,-97.0507,0.0,6.726165327,108.4622639,8.63,'11111222,11111222,11111222' 
TABS,ioos:station:wmo:42044:1,2005-06-03T00:00:00Z,26.1914,-97.0507,0.0,6.578882884,110.5564181,8.43,'11111222,11111222,11111222' 
TABS,ioos:station:wmo:42044:1,2005-06-03T00:30:00Z,26.1914,-97.0507,0.0,6.797955575,114.4164171,8.36,'11111222,11111222,11111222' 
TABS,ioos:station:wmo:42044:1,2005-06-03T01:00:00Z,26.1914,-97.0507,0.0,6.489568553,115.8546803,8.4,'11111222,11111222,11111222' 
TABS,ioos:station:wmo:42044:1,2005-06-03T01:30:00Z,26.1914,-97.0507,0.0,6.364848781,118.9412927,8.43,'11111222,11111222,11111222' 
TABS,ioos:station:wmo:42044:1,2005-06-03T02:00:00Z,26.1914,-97.0507,0.0,6.648917205,118.3769833,8.55,'11111222,11111222,11111222' 
TABS,ioos:station:wmo:42044:1,2005-06-03T02:30:00Z,26.1914,-97.0507,0.0,6.64702189,119.7666156,8.25,'11111222,11111222,11111222' 
TABS,ioos:station:wmo:42044:1,2005-06-03T03:00:00Z,26.1914,-97.0507,0.0,7.144592361,123.4679898,8.98,'11111222,11111222,11111222' 
TABS,ioos:station:wmo:42044:1,2005-06-03T03:30:00Z,26.1914,-97.0507,0.0,7.471311799,125.7965441,9.2,'11111222,11111222,11111222' 
TABS,ioos:station:wmo:42044:1,2005-06-03T04:00:00Z,26.1914,-97.0507,0.0,7.41555797,128.044729,10.24,'11111222,11111222,11111222' 
TABS,ioos:station:wmo:42044:1,2005-06-03T04:30:00Z,26.1914,-97.0507,0.0,6.984618816,129.3647679,8.58,'11111222,11111222,11111222' 
TABS,ioos:station:wmo:42044:1,2005-06-03T05:00:00Z,26.1914,-97.0507,0.0,7.394930696,128.9626473,9.34,'11111222,11111222,11111222' 
TABS,ioos:station:wmo:42044:1,2005-06-03T05:30:00Z,26.1914,-97.0507,0.0,8.081584003,125.7358134,10.02,'11111222,11111222,11111222' 
TABS,ioos:station:wmo:42044:1,2005-06-03T06:00:00Z,26.1914,-97.0507,0.0,7.600164472,126.4932927,9.88,'11111222,11111222,11111222' 
TABS,ioos:station:wmo:42044:1,2005-06-03T06:30:00Z,26.1914,-97.0507,0.0,8.560373824,127.4056901,11.56,'11111222,11111222,11111222' 
TABS,ioos:station:wmo:42044:1,2005-06-03T07:00:00Z,26.1914,-97.0507,0.0,8.821451128,132.151678,11.51,'11111222,11111222,11111222' 
TABS,ioos:station:wmo:42044:1,2005-06-03T07:30:00Z,26.1914,-97.0507,0.0,9.539082765,134.6180672,12.05,'11111222,11111222,11111222' 
TABS,ioos:station:wmo:42044:1,2005-06-03T08:00:00Z,26.1914,-97.0507,0.0,9.090286024,145.2612883,11.92,'11111222,11111222,11111222' 
TABS,ioos:station:wmo:42044:1,2005-06-03T08:30:00Z,26.1914,-97.0507,0.0,8.619153091,147.5087006,11.17,'11111222,11111222,11111222' 
TABS,ioos:station:wmo:42044:1,2005-06-03T09:00:00Z,26.1914,-97.0507,0.0,8.813200327,147.4642744,11.36,'11111222,11111222,11111222' 
TABS,ioos:station:wmo:42044:1,2005-06-03T09:30:00Z,26.1914,-97.0507,0.0,8.248660497,146.7725841,11.05,'11111222,11111222,11111222' 
TABS,ioos:station:wmo:42044:1,2005-06-03T10:00:00Z,26.1914,-97.0507,0.0,7.999906249,138.6998444,10.97,'11111222,11111222,11111222' 
TABS,ioos:station:wmo:42044:1,2005-06-03T10:30:00Z,26.1914,-97.0507,0.0,8.704297789,142.6564569,10.96,'11111222,11111222,11111222' 
TABS,ioos:station:wmo:42044:1,2005-06-03T11:00:00Z,26.1914,-97.0507,0.0,8.004929731,140.4238405,10.43,'11111222,11111222,11111222' 
TABS,ioos:station:wmo:42044:1,2005-06-03T11:30:00Z,26.1914,-97.0507,0.0,7.443117626,149.3005597,9.74,'11111222,11111222,11111222' 
TABS,ioos:station:wmo:42044:1,2005-06-03T12:00:00Z,26.1914,-97.0507,0.0,7.348863858,154.4464212,9.67,'11111222,11111222,11111222' 
TABS,ioos:station:wmo:42044:1,2005-06-03T12:30:00Z,26.1914,-97.0507,0.0,6.359347451,161.4798314,8.12,'11111222,11111222,11111222' 
TABS,ioos:station:wmo:42044:1,2005-06-03T13:00:00Z,26.1914,-97.0507,0.0,5.796800842,154.4519355,7.24,'11111222,11111222,11111222' 
TABS,ioos:station:wmo:42044:1,2005-06-03T13:30:00Z,26.1914,-97.0507,0.0,6.846057259,142.8960623,8.85,'11111222,11111222,11111222' 
TABS,ioos:station:wmo:42044:1,2005-06-03T14:00:00Z,26.1914,-97.0507,0.0,7.957669257,146.9492544,10.76,'11111222,11111222,11111222' 
TABS,ioos:station:wmo:42044:1,2005-06-03T14:30:00Z,26.1914,-97.0507,0.0,7.498993266,160.5263158,9.34,'11111222,11111222,11111222' 
TABS,ioos:station:wmo:42044:1,2005-06-03T15:00:00Z,26.1914,-97.0507,0.0,7.682870557,158.9466859,10.13,'11111222,11111222,11111222' 
TABS,ioos:station:wmo:42044:1,2005-06-03T15:30:00Z,26.1914,-97.0507,0.0,8.492785173,153.0429983,11.22,'11111222,11111222,11111222' 
TABS,ioos:station:wmo:42044:1,2005-06-03T16:00:00Z,26.1914,-97.0507,0.0,8.099734564,160.6033831,9.98,'11111222,11111222,11111222' 
TABS,ioos:station:wmo:42044:1,2005-06-03T16:30:00Z,26.1914,-97.0507,0.0,7.328635617,155.1486827,9.5,'11111222,11111222,11111222' 
TABS,ioos:station:wmo:42044:1,2005-06-03T17:00:00Z,26.1914,-97.0507,0.0,7.894460083,154.4089913,10.28,'11111222,11111222,11111222' 
TABS,ioos:station:wmo:42044:1,2005-06-03T17:30:00Z,26.1914,-97.0507,0.0,7.473185398,149.9701116,9.56,'11111222,11111222,11111222' 
TABS,ioos:station:wmo:42044:1,2005-06-03T18:00:00Z,26.1914,-97.0507,0.0,6.336813079,151.3320891,8.37,'11111222,11111222,11111222' 
TABS,ioos:station:wmo:42044:1,2005-06-03T18:30:00Z,26.1914,-97.0507,0.0,6.908791501,146.3332228,8.82,'11111222,11111222,11111222' 
TABS,ioos:station:wmo:42044:1,2005-06-03T19:00:00Z,26.1914,-97.0507,0.0,6.130073409,137.6448862,7.75,'11111222,11111222,11111222' 
TABS,ioos:station:wmo:42044:1,2005-06-03T19:30:00Z,26.1914,-97.0507,0.0,6.80762073,141.2616274,8.61,'11111222,11111222,11111222' 
TABS,ioos:station:wmo:42044:1,2005-06-03T20:00:00Z,26.1914,-97.0507,0.0,7.5840952,143.4174792,9.32,'11111222,11111222,11111222' 
TABS,ioos:station:wmo:42044:1,2005-06-03T20:30:00Z,26.1914,-97.0507,0.0,7.688536922,146.8889459,9.95,'11111222,11111222,11111222' 
TABS,ioos:station:wmo:42044:1,2005-06-03T21:00:00Z,26.1914,-97.0507,0.0,7.607851208,149.4240022,9.63,'11111222,11111222,11111222' 
TABS,ioos:station:wmo:42044:1,2005-06-03T21:30:00Z,26.1914,-97.0507,0.0,7.626598193,152.2592296,9.58,'11111222,11111222,11111222' 
TABS,ioos:station:wmo:42044:1,2005-06-03T22:00:00Z,26.1914,-97.0507,0.0,7.245888489,149.2941855,9.32,'11111222,11111222,11111222' 
TABS,ioos:station:wmo:42044:1,2005-06-03T22:30:00Z,26.1914,-97.0507,0.0,6.73759601,150.0866344,9.0,'11111222,11111222,11111222' 
TABS,ioos:station:wmo:42044:1,2005-06-03T23:00:00Z,26.1914,-97.0507,0.0,5.506042136,138.755647,7.18,'11111222,11111222,11111222' 
TABS,ioos:station:wmo:42044:1,2005-06-03T23:30:00Z,26.1914,-97.0507,0.0,5.280274614,131.0841732,7.46,'11111222,11111222,11111222' 
TABS,ioos:station:wmo:42044:1,2005-06-04T00:00:00Z,26.1914,-97.0507,0.0,5.184255009,124.5487072,6.99,'11111222,11111222,11111222' 
TABS,ioos:station:wmo:42044:1,2005-06-04T00:30:00Z,26.1914,-97.0507,0.0,5.264085866,132.998863,7.49,'11111222,11111222,11111222' 
TABS,ioos:station:wmo:42044:1,2005-06-04T01:00:00Z,26.1914,-97.0507,0.0,5.087022705,129.416531,6.34,'11111222,11111222,11111222' 
TABS,ioos:station:wmo:42044:1,2005-06-04T01:30:00Z,26.1914,-97.0507,0.0,5.279024531,127.9990645,6.78,'11111222,11111222,11111222' 
TABS,ioos:station:wmo:42044:1,2005-06-04T02:00:00Z,26.1914,-97.0507,0.0,5.699587704,123.9134573,7.33,'11111222,11111222,11111222' 
TABS,ioos:station:wmo:42044:1,2005-06-04T02:30:00Z,26.1914,-97.0507,0.0,6.497576471,131.3189744,8.56,'11111222,11111222,11111222' 
TABS,ioos:station:wmo:42044:1,2005-06-04T03:00:00Z,26.1914,-97.0507,0.0,7.326117662,134.3366892,9.1,'11111222,11111222,11111222' 
TABS,ioos:station:wmo:42044:1,2005-06-04T03:30:00Z,26.1914,-97.0507,0.0,6.631417646,140.8142403,8.52,'11111222,11111222,11111222' 
TABS,ioos:station:wmo:42044:1,2005-06-04T04:00:00Z,26.1914,-97.0507,0.0,5.23026768,141.4431422,6.86,'11111222,11111222,11111222' 
TABS,ioos:station:wmo:42044:1,2005-06-04T04:30:00Z,26.1914,-97.0507,0.0,6.074248925,138.9386092,8.4,'11111222,11111222,11111222' 
TABS,ioos:station:wmo:42044:1,2005-06-04T05:00:00Z,26.1914,-97.0507,0.0,6.252071657,139.0212864,8.45,'11111222,11111222,11111222' 
TABS,ioos:station:wmo:42044:1,2005-06-04T05:30:00Z,26.1914,-97.0507,0.0,6.767843083,135.898293,9.0,'11111222,11111222,11111222' 
TABS,ioos:station:wmo:42044:1,2005-06-04T06:00:00Z,26.1914,-97.0507,0.0,6.491502137,140.3755465,8.39,'11111222,11111222,11111222' 
TABS,ioos:station:wmo:42044:1,2005-06-04T06:30:00Z,26.1914,-97.0507,0.0,7.133617596,138.466819,9.34,'11111222,11111222,11111222' 
TABS,ioos:station:wmo:42044:1,2005-06-04T07:00:00Z,26.1914,-97.0507,0.0,6.879723832,141.8477507,8.97,'11111222,11111222,11111222' 
TABS,ioos:station:wmo:42044:1,2005-06-04T07:30:00Z,26.1914,-97.0507,0.0,6.906127714,143.4788478,9.4,'11111222,11111222,11111222' 
TABS,ioos:station:wmo:42044:1,2005-06-04T08:00:00Z,26.1914,-97.0507,0.0,7.119838481,145.819192,9.18,'11111222,11111222,11111222' 
TABS,ioos:station:wmo:42044:1,2005-06-04T08:30:00Z,26.1914,-97.0507,0.0,7.283254767,147.9031758,9.95,'11111222,11111222,11111222' 
TABS,ioos:station:wmo:42044:1,2005-06-04T09:00:00Z,26.1914,-97.0507,0.0,6.43292313,148.9296031,8.51,'11111222,11111222,11111222' 
TABS,ioos:station:wmo:42044:1,2005-06-04T09:30:00Z,26.1914,-97.0507,0.0,7.044181997,152.7076968,9.44,'11111222,11111222,11111222' 
TABS,ioos:station:wmo:42044:1,2005-06-04T10:00:00Z,26.1914,-97.0507,0.0,6.681377104,153.5119224,8.81,'11111222,11111222,11111222' 
TABS,ioos:station:wmo:42044:1,2005-06-04T10:30:00Z,26.1914,-97.0507,0.0,6.71804287,147.0908325,9.16,'11111222,11111222,11111222' 
TABS,ioos:station:wmo:42044:1,2005-06-04T11:00:00Z,26.1914,-97.0507,0.0,6.463783722,148.9909209,8.66,'11111222,11111222,11111222' 
TABS,ioos:station:wmo:42044:1,2005-06-04T11:30:00Z,26.1914,-97.0507,0.0,6.224371454,143.7563548,8.39,'11111222,11111222,11111222' 
TABS,ioos:station:wmo:42044:1,2005-06-04T12:00:00Z,26.1914,-97.0507,0.0,6.556256554,142.6235258,9.45,'11111222,11111222,11111222' 
TABS,ioos:station:wmo:42044:1,2005-06-04T12:30:00Z,26.1914,-97.0507,0.0,6.316723834,147.5430076,8.17,'11111222,11111222,11111222' 
TABS,ioos:station:wmo:42044:1,2005-06-04T13:00:00Z,26.1914,-97.0507,0.0,7.23027662,147.8269048,9.9,'11111222,11111222,11111222' 
TABS,ioos:station:wmo:42044:1,2005-06-04T13:30:00Z,26.1914,-97.0507,0.0,6.433234023,142.0081465,8.43,'11111222,11111222,11111222' 
TABS,ioos:station:wmo:42044:1,2005-06-04T14:00:00Z,26.1914,-97.0507,0.0,7.765410485,144.2224558,10.71,'11111222,11111222,11111222' 
TABS,ioos:station:wmo:42044:1,2005-06-04T14:30:00Z,26.1914,-97.0507,0.0,6.740066765,143.3854225,8.91,'11111222,11111222,11111222' 
TABS,ioos:station:wmo:42044:1,2005-06-04T15:00:00Z,26.1914,-97.0507,0.0,7.560403428,141.1747961,9.83,'11111222,11111222,11111222' 
TABS,ioos:station:wmo:42044:1,2005-06-04T15:30:00Z,26.1914,-97.0507,0.0,7.195449951,145.3605351,10.48,'11111222,11111222,11111222' 
TABS,ioos:station:wmo:42044:1,2005-06-04T16:00:00Z,26.1914,-97.0507,0.0,7.186668213,142.3490707,9.24,'11111222,11111222,11111222' 
TABS,ioos:station:wmo:42044:1,2005-06-04T16:30:00Z,26.1914,-97.0507,0.0,7.304033132,142.9578223,10.02,'11111222,11111222,11111222' 
TABS,ioos:station:wmo:42044:1,2005-06-04T17:00:00Z,26.1914,-97.0507,0.0,7.48425681,142.6557533,9.91,'11111222,11111222,11111222' 
TABS,ioos:station:wmo:42044:1,2005-06-04T17:30:00Z,26.1914,-97.0507,0.0,7.567568962,137.7317133,10.26,'11111222,11111222,11111222' 
TABS,ioos:station:wmo:42044:1,2005-06-04T18:00:00Z,26.1914,-97.0507,0.0,7.651535794,139.9838057,10.82,'11111222,11111222,11111222' 
TABS,ioos:station:wmo:42044:1,2005-06-04T18:30:00Z,26.1914,-97.0507,0.0,6.866010486,143.230537,9.0,'11111222,11111222,11111222' 